24h Messdaten per 18.09.2021 um 14:22:01

Datum Zeit Luftdruck Temp Balkon Feuchte Balkon Temp Strasse Feuchte Strasse Wind km/h Wind Boe Wind aus (Grad) Regen l/15min Sonne h/Monat
18.09.21 14:22:01 1013 27.4 20
18.09.21 14:17:01 1013 26.0 20
18.09.21 14:12:01 1013 25.7 20
18.09.21 14:07:01 1013 24.9 20
18.09.21 14:02:01 1013 23.6 20
18.09.21 13:57:01 1014 23.6 20
18.09.21 13:52:00 1014 22.6 20
18.09.21 13:47:00 1014 23.2 20
18.09.21 13:42:00 1014 24.4 20
18.09.21 13:37:00 1014
18.09.21 13:32:00 1014
18.09.21 13:27:00 1014 0.0
18.09.21 13:22:01 1014 24.5 20 0.0
18.09.21 13:17:01 1014 21.6 20 0.0
18.09.21 13:12:01 1014 22.1 20 0.0
18.09.21 13:07:01 1014 22.2 20 0.0
18.09.21 13:02:01 1014 22.5 20 0.0
18.09.21 12:57:01 1014 22.0 20 0.0
18.09.21 12:52:02 1014 21.5 20 0.0
18.09.21 12:47:02 1014 21.1 20 0.0
18.09.21 12:42:01 1014 21.2 20 0.0
18.09.21 12:37:01 1014 0.0
18.09.21 12:32:01 1014 0.0
18.09.21 12:27:01 1014 0.0
18.09.21 12:22:01 1014 21.2 20 0.0
18.09.21 12:17:01 1014 21.1 20 0.0
18.09.21 12:12:01 1014 21.1 20 0.0
18.09.21 12:07:01 1014 20.6 20 0.0
18.09.21 12:02:01 1014 20.5 20 0.0
18.09.21 11:57:01 1014 20.5 20 0.0
18.09.21 11:52:02 1014 20.9 20 0.0
18.09.21 11:47:01 1014 22.1 20 0.0
18.09.21 11:42:01 1014 20.7 20 0.0
18.09.21 11:37:00 1014 23.1 20 0.0
18.09.21 11:32:00 1014 21.3 20 0.0
18.09.21 11:27:00 1014 20.4 20 0.0
18.09.21 11:22:01 1014 20.4 20 0.0
18.09.21 11:17:01 1014 20.9 20 0.0
18.09.21 11:12:01 1014 21.7 20 0.0
18.09.21 11:07:01 1014 20.3 20 0.0
18.09.21 11:02:01 1014 21.0 20 0.0
18.09.21 10:57:01 1014 23.0 20 0.0
18.09.21 10:52:01 1014 24.2 20 0.0
18.09.21 10:47:01 1014 23.8 20 0.0
18.09.21 10:42:01 1014 23.1 20 0.0
18.09.21 10:37:01 1014 23.9 20 0.0
18.09.21 10:32:01 1014 22.8 20 0.0
18.09.21 10:27:01 1014 22.2 20 0.0
18.09.21 10:22:01 1014 22.2 20 0.0
18.09.21 10:17:01 1014 22.6 20 0.0
18.09.21 10:12:01 1014 22.5 20 0.0
18.09.21 10:07:01 1014 23.1 20 0.0
18.09.21 10:02:01 1014 23.0 24 0.0
18.09.21 09:57:01 1014 22.0 31 0.0
18.09.21 09:52:01 1014 21.0 32 0.0
18.09.21 09:47:01 1014 18.7 32 0.0
18.09.21 09:42:01 1014 16.9 34 0.0
18.09.21 09:37:01 1014 0.0
18.09.21 09:32:01 1014 15.1 34 0.0
18.09.21 09:27:01 1014 15.1 36 0.0
18.09.21 09:22:02 1014 15.1 38 0.0
18.09.21 09:17:02 1014 15.1 38 0.0
18.09.21 09:12:01 1014 15.3 39 0.0
18.09.21 09:07:01 1014 14.9 42 0.0
18.09.21 09:02:01 1014 14.6 43 0.0
18.09.21 08:57:01 1014 14.2 45 0.0
18.09.21 08:52:02 1014 0.0
18.09.21 08:47:01 1014 14.5 48 0.0
18.09.21 08:42:01 1014 15.0 54 0.0
18.09.21 08:37:01 1014 13.8 55 0.0
18.09.21 08:32:01 1013 0.0
18.09.21 08:27:01 1013 12.7 60 0.0
18.09.21 08:22:01 1013 11.0 61 0.0
18.09.21 08:17:01 1013 10.6 61 0.0
18.09.21 08:12:01 1013 10.4 61 0.0
18.09.21 08:07:01 1013 10.3 61 0.0
18.09.21 08:02:01 1013 10.2 61 0.0
18.09.21 07:57:01 1013 10.1 61 0.0
18.09.21 07:52:01 1013 10.1 61 0.0
18.09.21 07:47:01 1013 9.9 61 0.0
18.09.21 07:42:01 1013 10.0 61 0.0
18.09.21 07:37:01 1013 9.9 61 0.0
18.09.21 07:32:01 1013 9.8 61 0.0
18.09.21 07:27:01 1013 9.9 61 0.0
18.09.21 07:22:01 1013 10.0 61 0.0
18.09.21 07:17:01 1013 9.9 61 0.0
18.09.21 07:12:01 1013 9.9 61 0.0
18.09.21 07:07:01 1013 9.9 61 0.0
18.09.21 07:02:01 1013 9.9 61 0.0
18.09.21 06:57:01 1013 10.1 61 0.0
18.09.21 06:52:01 1013 10.1 61 0.0
18.09.21 06:47:01 1013 9.9 61 0.0
18.09.21 06:42:01 1013 10.0 60 0.0
18.09.21 06:37:02 1013 10.1 60 0.0
18.09.21 06:32:02 1013 10.1 60 0.0
18.09.21 06:27:02 1013 10.0 60 0.0
18.09.21 06:22:01 1013 10.2 60 0.0
18.09.21 06:17:01 1013 10.2 60 0.0
18.09.21 06:12:01 1013 10.3 60 0.0
18.09.21 06:07:01 1013 10.4 60 0.0
18.09.21 06:02:01 1013 10.3 60 0.0
18.09.21 05:57:01 1013 10.3 60 0.0
18.09.21 05:52:02 1013 10.4 60 0.0
18.09.21 05:47:01 1013 0.0
18.09.21 05:42:01 1013 10.5 60 0.0
18.09.21 05:37:02 1013 10.3 59 0.0
18.09.21 05:32:02 1013 10.4 59 0.0
18.09.21 05:27:01 1013 10.4 59 0.0
18.09.21 05:22:01 1013 10.5 59 0.0
18.09.21 05:17:01 1013 10.5 59 0.0
18.09.21 05:12:01 1013 10.4 58 0.0
18.09.21 05:07:02 1013 10.4 58 0.0
18.09.21 05:02:02 1013 10.4 58 0.0
18.09.21 04:57:02 1013 10.3 57 0.0
18.09.21 04:52:02 1013 10.5 57 0.0
18.09.21 04:47:02 1013 10.6 57 0.0
18.09.21 04:42:02 1013 10.9 57 0.0
18.09.21 04:37:02 1013 10.9 57 0.0
18.09.21 04:32:01 1013 10.9 57 0.0
18.09.21 04:27:01 1013 10.9 57 0.0
18.09.21 04:22:01 1013 10.9 57 0.0
18.09.21 04:17:01 1013 10.9 57 0.0
18.09.21 04:12:01 1013 10.9 57 0.0
18.09.21 04:07:02 1013 11.0 57 0.0
18.09.21 04:02:02 1013 11.0 57 0.0
18.09.21 03:57:02 1013 11.0 57 0.0
18.09.21 03:52:01 1013 11.0 57 0.0
18.09.21 03:47:01 1013 10.9 57 0.0
18.09.21 03:42:01 1013 10.9 57 0.0
18.09.21 03:37:01 1013 10.9 57 0.0
18.09.21 03:32:01 1013 10.9 57 0.0
18.09.21 03:27:01 1013 10.9 57 0.0
18.09.21 03:22:01 1013 0.0
18.09.21 03:17:01 1013 10.9 56 0.0
18.09.21 03:12:01 1013 11.0 56 0.0
18.09.21 03:07:01 1013 11.2 56 0.0
18.09.21 03:02:01 1013 11.1 56 0.0
18.09.21 02:57:01 1013 11.1 56 0.0
18.09.21 02:51:01 1013 11.2 56 0.0
18.09.21 02:46:01 1013 11.2 56 0.0
18.09.21 02:41:00 1013 11.1 56 0.0
18.09.21 02:36:00 1013 11.1 56 0.0
18.09.21 02:31:00 1013 11.2 56 0.0
18.09.21 02:26:00 1013 11.2 56 0.0
18.09.21 02:21:00 1013 11.2 56 0.0
18.09.21 02:16:00 1013 11.2 56 0.0
18.09.21 02:11:00 1013 11.2 56 0.0
18.09.21 02:06:00 1013 11.2 56 0.0
18.09.21 02:01:00 1013 11.3 56 0.0
18.09.21 01:56:00 1013 11.2 55 0.0
18.09.21 01:51:00 1013 11.3 55 0.0
18.09.21 01:46:00 1013 11.3 55 0.0
18.09.21 01:41:00 1013 11.3 55 0.0
18.09.21 01:36:00 1013 11.4 54 0.0
18.09.21 01:31:00 1013 11.4 54 0.0
18.09.21 01:26:00 1013 11.5 54 0.0
18.09.21 01:21:00 1013 11.5 53 0.0
18.09.21 01:16:00 1013 11.5 53 0.0
18.09.21 01:11:00 1013 11.6 53 0.0
18.09.21 01:06:00 1013 11.7 52 0.0
18.09.21 01:01:00 1013 11.8 52 0.0
18.09.21 00:56:00 1013 11.8 52 0.0
18.09.21 00:51:01 1013 11.9 52 0.0
18.09.21 00:46:01 1013 11.9 51 0.0
18.09.21 00:41:00 1013 12.0 51 0.0
18.09.21 00:36:00 1013 12.0 50 0.0
18.09.21 00:31:00 1013 0.0
18.09.21 00:26:00 1013 12.0 50 0.0
18.09.21 00:21:00 1013 12.1 49 0.0
18.09.21 00:16:00 1013 12.2 48 0.0
18.09.21 00:11:00 1013 12.2 47 0.0
18.09.21 00:06:01 1013 12.5 47 0.0
18.09.21 00:01:00 1013 0.0
17.09.21 23:56:00 1013 12.7 47 0.0
17.09.21 23:51:00 1013 12.7 46 0.0
17.09.21 23:46:00 1013 12.8 46 0.0
17.09.21 23:41:00 1013 12.9 46 0.0
17.09.21 23:36:01 1013 12.9 46 0.0
17.09.21 23:31:01 1013 12.9 46 0.0
17.09.21 23:26:00 1013 12.9 46 0.0
17.09.21 23:21:00 1013 12.9 47 0.0
17.09.21 23:16:00 1013 13.0 46 0.0
17.09.21 23:11:00 1013 13.1 46 0.0
17.09.21 23:06:00 1013 13.1 46 0.0
17.09.21 23:01:00 1013 13.2 46 0.0
17.09.21 22:56:00 1013 13.2 47 0.0
17.09.21 22:51:00 1013 13.3 47 0.0
17.09.21 22:46:00 1013 13.3 47 0.0
17.09.21 22:41:00 1013 13.4 46 0.0
17.09.21 22:36:00 1013 13.4 46 0.0
17.09.21 22:31:00 1013 13.5 46 0.0
17.09.21 22:26:00 1013 13.5 46 0.0
17.09.21 22:21:01 1013 13.5 46 0.0
17.09.21 22:16:01 1013 13.5 46 0.0
17.09.21 22:11:01 1013 13.6 45 0.0
17.09.21 22:06:00 1013 13.6 45 0.0
17.09.21 22:01:00 1013 13.6 45 0.0
17.09.21 21:56:00 1013 13.7 44 0.0
17.09.21 21:51:00 1013 13.8 44 0.0
17.09.21 21:46:00 1013 13.8 43 0.0
17.09.21 21:41:00 1013 13.8 43 0.0
17.09.21 21:36:00 1013 13.8 43 0.0
17.09.21 21:31:00 1013 13.9 42 0.0
17.09.21 21:26:00 1013 14.0 42 0.0
17.09.21 21:21:01 1012 13.8 42 0.0
17.09.21 21:16:01 1012 13.9 42 0.0
17.09.21 21:11:01 1012 14.0 41 0.0
17.09.21 21:06:00 1012 14.2 40 0.0
17.09.21 21:01:00 1012 14.3 39 0.0
17.09.21 20:56:00 1012 14.3 39 0.0
17.09.21 20:51:01 1012 14.4 39 0.0
17.09.21 20:46:01 1012 14.5 39 0.0
17.09.21 20:41:01 1012 14.6 39 0.0
17.09.21 20:36:00 1012 14.6 39 0.0
17.09.21 20:31:00 1012 14.7 38 0.0
17.09.21 20:26:00 1012 14.8 38 0.0
17.09.21 20:21:00 14.8 38 0.0
17.09.21 20:16:00 1012 14.9 38 0.0
17.09.21 20:11:00 1012 15.1 37 0.0
17.09.21 20:06:00 1012 15.3 37 0.0
17.09.21 20:01:00 1012 15.4 34 0.0
17.09.21 19:56:00 1012 15.7 34 0.0
17.09.21 19:51:01 1012 15.8 34 0.0
17.09.21 19:46:01 1012 15.6 33 0.0
17.09.21 19:41:01 1012 15.6 31 0.0
17.09.21 19:36:01 1012 15.9 31 0.0
17.09.21 19:31:00 1012 16.1 30 0.0
17.09.21 19:26:00 1012 16.7 30 0.0
17.09.21 19:21:01 1012 16.9 29 0.0
17.09.21 19:16:01 1012 17.0 29 0.0
17.09.21 19:11:01 17.4 28 0.0
17.09.21 19:06:00 1012 17.6 26 0.0
17.09.21 19:01:00 1012 17.7 26 0.0
17.09.21 18:56:00 1012 17.8 26 0.0
17.09.21 18:51:01 1012 18.0 25 0.0
17.09.21 18:46:01 1012 18.4 25 0.0
17.09.21 18:41:01 1012 18.6 25 0.0
17.09.21 18:36:01 1012 18.9 20 0.0
17.09.21 18:31:01 1012 19.3 20 0.0
17.09.21 18:26:01 1012 19.5 20 0.0
17.09.21 18:21:01 1012 19.8 20 0.0
17.09.21 18:16:01 1012 20.2 20 0.0
17.09.21 18:11:01 1012 20.6 20 0.0
17.09.21 18:06:01 1012 20.9 20 0.0
17.09.21 18:01:01 1012 21.2 20 0.0
17.09.21 17:56:00 1012 23.1 20 0.0
17.09.21 17:51:01 1012 23.8 20 0.0
17.09.21 17:46:01 1012 23.6 20 0.0
17.09.21 17:41:01 1012 25.6 20 0.0
17.09.21 17:36:01 1012 26.1 20 0.0
17.09.21 17:31:01 1012 24.8 20 0.0
17.09.21 17:26:01 1012 26.8 20
17.09.21 17:21:00 1012 25.8 20 0.0
17.09.21 17:16:00 24.0 20 0.0
17.09.21 17:11:00 1012 23.2 20 0.0
17.09.21 17:06:00 1012 22.9 20 0.0
17.09.21 17:01:00 1012 21.5 20 0.0
17.09.21 16:56:00 1012 21.5 20 0.0
17.09.21 16:51:01 1012 21.6 20 0.0
17.09.21 16:46:01 1012 21.7 20 0.0
17.09.21 16:41:01 1012 22.1 20 0.0
17.09.21 16:36:01 1012 21.8 20 0.0
17.09.21 16:31:01 1012 20.7 20 0.0
17.09.21 16:26:01 1012 19.9 20 0.0
17.09.21 16:21:01 1012 20.6 20 0.0
17.09.21 16:16:01 1012 21.2 20 0.0
17.09.21 16:11:01 1012 22.0 20 0.0
17.09.21 16:06:02 1012 21.0 20 0.0
17.09.21 16:01:02 1012 19.6 21 0.0
17.09.21 15:56:01 1012 18.6 20 0.0
17.09.21 15:51:02 1012 18.6 21 0.0
17.09.21 15:46:02 1012 18.6 22 0.0
17.09.21 15:41:01 1013 18.6 22 0.0
17.09.21 15:36:02 1013 18.6 21 0.0
17.09.21 15:31:02 1013 18.9 20 0.0
17.09.21 15:26:01 1013 19.0 20 0.0
17.09.21 15:21:00 1013 19.1 20 0.0
17.09.21 15:16:00 1013 19.0 21 0.0
17.09.21 15:11:00 1013 18.9 22 0.0
17.09.21 15:06:01 1013 18.5 22 0.0
17.09.21 15:01:01 1013 18.4 23 0.0
17.09.21 14:56:01 1013 18.5 21 0.0
17.09.21 14:51:01 1013 18.6 20 0.0
17.09.21 14:46:01 1013 18.6 20 0.0
17.09.21 14:41:01 1013 19.0 20 0.0
17.09.21 14:36:00 1013 19.1 20 0.0
17.09.21 14:31:00 1013 19.0 20 0.0
17.09.21 14:26:00 1013 19.2 20 0.0
Index
© 2002-2021 Thomas Dreßler
Alle Rechte vorbehalten
letzte Scriptänderung 21.03.2021